sat.trackr.live / text

‹ back to catalog

STARLINK-35769

NORAD 66842 · 2025-280X

PAYLOAD ACTIVE UNKNOWN

§ Identity

Operator
Country
US
Launch date
2025-12-02
Launch site
AFWTR
Launch vehicle
Mass (kg)
RCS (m²)

Purposes: comms

External: N2YO · Heavens-Above · Gunter

§ Orbital elements

Epoch: 2026-09-20T06:04:31.022976Z

Period
96.11 min
Inclination
69.9999°
Eccentricity
0.0002707
Mean motion
14.98335835 rev/d
Perigee alt
570.2 km
Apogee alt
573.9 km
Semi-major
6,950.2 km
B*
3.3505e-4
RAAN
203.7259°
Arg perigee
269.4477°
Mean anomaly
90.6372°
Rev number
4,522

§ Raw data

STARLINK-357691 66842U 25280X   26263.25313684  .00003908  00000+0  33505-3 0  99922 66842  69.9999 203.7259 0002707 269.4477  90.6372 14.98335835 45221

JSON: /api/v1/satellites/66842 · /tle

For live sub-satellite position, see the globe view (requires WebGL).

§ Visibility from observer

Set your observer location to see the next 7 days of passes ≥ 10°. The values pass through the URL so the page stays shareable.

No JS? Fill the form by hand. The geolocation button needs JavaScript.